Location: Peebles
(55.6412°N, 3.1714°W)
Time: 22:49:58
(UTC+00:00)

deb Agena D - Pass Details

Date: 29 September 2023
Orbit: 794 x 979 km, 99.8° (Epoch: 28 November)

Event Time Altitude Azimuth Distance (km) Brightness Sun altitude
Rises 04:24:48 0° 18° (NNE) 3,697 10.3 -23.1°
Reaches altitude 10° 04:28:34 10° 355° (N) 2,742 9.2 -22.7°
Maximum altitude 04:31:32 14° 326° (NNW) 2,444 8.6 -22.3°
Enters shadow 04:33:49 11° 303° (WNW) 2,610 8.5 -22.0°
